Location: Ammerl�gen
(47.2167°N, 9.6000°E)
Time: 03:53:29
(UTC+00:00)

NO-84 - Visible Passes

Search period start: 06 December 2021 00:00
Search period end: 16 December 2021 00:00
Orbit: 254 x 295 km, 55.0° (Epoch: 30 November)

Date Brightness Start Highest point End Pass type
(mag) Time Alt. Az. Time Alt. Az. Time Alt. Az.
06 Dec ? 16:33:10 10° SSW 16:35:14 27° SE 16:36:22 18° E visible
07 Dec ? 16:28:50 10° SW 16:31:06 45° SE 16:32:34 18° ENE visible
08 Dec ? 16:24:03 10° SW 16:26:23 80° SE 16:28:07 16° ENE visible
09 Dec ? 16:18:47 10° WSW 16:21:04 61° NNW 16:23:02 13° NE visible
10 Dec ? 16:12:59 10° W 16:15:11 39° NNW 16:17:20 10° NE visible
11 Dec ? 16:06:39 10° W 16:08:43 28° NNW 16:10:46 10° NE visible
15 Dec ? 17:09:05 10° NNW 17:09:21 11° NNW 17:09:21 11° NNW visible
